Location: Gleizolles
(44.4833°N, 6.7667°E)
Time: 16:44:00
(UTC+00:00)

Tiros 1 - Pass Details

Date: 03 July 2024
Orbit: 624 x 656 km, 48.4° (Epoch: 13 July)

Event Time Altitude Azimuth Distance (km) Brightness Sun altitude
Rises 01:21:58 0° 291° (WNW) 2,907 10.5 -18.5°
Reaches altitude 10° 01:24:22 10° 284° (WNW) 2,000 9.5 -18.3°
Maximum altitude 01:28:41 41° 215° (SW) 910 7.4 -17.9°
Enters shadow 01:31:21 21° 156° (SSE) 1,427 8.6 -17.7°
Drops below altitude 10° 01:33:01 10° 145° (SE) 2,005 - -17.6°
Exits shadow 01:33:33 - 143° (SE) 2,201 9.6 -17.5°
Sets 01:35:26 0° 138° (SE) 2,915 10.3 -17.4°
